Weather History for Hat Yai, Thailand

Change the Weather History Date:

Saturday, November 30, 2013

  Actual Average Record
Temperature  
Mean Temperature 81 °F -  
Max Temperature 86 °F 83 °F 90 °F (2012)
Min Temperature 76 °F 73 °F 73 °F (2003)
Cooling Degree Days 16    
Growing Degree Days 31 (Base 50)    
Moisture  
Dew Point 74 °F    
Average Humidity 84    
Maximum Humidity 94    
Minimum Humidity 66    
Precipitation  
Precipitation 0.28 in - - ()
Sea Level Pressure  
Sea Level Pressure 29.83 in    
Wind  
Wind Speed 4 mph ()    
Max Wind Speed 16 mph    
Max Gust Speed -    
Visibility 4.7 miles    
Events Rain    
Averages and records for this station are not official NWS values.
T = Trace of Precipitation, MM = Missing Value Source: Averaged Metar Reports

Daily Weather History Graph

Daily Weather History Graph

Search for Another Location

Airport:

Trip Planner

Search our weather history database for the weather conditions in past years. The results will help you decide how hot, cold, wet, or windy it might be!

Date:

Astronomy

Nov. 30, 2013 Rise Set
Actual Time 6:14 AM ICT 5:59 PM ICT
Civil Twilight 5:52 AM ICT 6:22 PM ICT
Nautical Twilight 5:26 AM ICT 6:47 PM ICT
Astronomical Twilight 5:00 AM ICT 7:13 PM ICT
Moon 3:22 AM ICT (11/30) 3:35 PM ICT (11/30)
Length of Visible Light 12h 29m
Length of Day
11h 45m
Waning Crescent, 10% of the Moon is Illuminated
Nov 30
Waning Crescent
Dec 3
New
Dec 9
First Quarter
Dec 17
Full
Dec 25
Last Quarter

Hourly Weather History & Observations

Time (ICT) Temp. Heat Index Dew Point Humidity Pressure Visibility Wind Dir Wind Speed Gust Speed Precip Events Conditions
12:00 AM 77.0 °F - 75.2 °F 94% 29.86 in 4.3 mi Calm Calm - N/A   Mostly Cloudy
12:30 AM 77.0 °F - 75.2 °F 94% 29.86 in 3.7 mi Calm Calm - N/A Rain Light Rain
1:00 AM 78 °F - 75 °F 88% 29.86 in 4 mi NE 6.9 mph - - Rain Light Rain
1:00 AM 78.8 °F - 75.2 °F 89% 29.86 in 3.7 mi NE 6.9 mph - N/A Rain Light Rain
1:30 AM 77.0 °F - 75.2 °F 94% 29.83 in 5.0 mi NE 3.5 mph - N/A   Mostly Cloudy
2:00 AM 77.0 °F - 75.2 °F 94% 29.83 in 5.0 mi Calm Calm - N/A   Mostly Cloudy
2:30 AM 77.0 °F - 75.2 °F 94% 29.80 in 5.0 mi Calm Calm - N/A   Mostly Cloudy
3:00 AM 77.0 °F - 75.2 °F 94% 29.80 in 3.7 mi Calm Calm - N/A   Mostly Cloudy
3:30 AM 77.0 °F - 75.2 °F 94% 29.80 in 3.7 mi Calm Calm - N/A   Mostly Cloudy
4:00 AM 77 °F - 75 °F 90% 29.81 in 4 mi SSW 3.5 mph - -   Mist
4:00 AM 77.0 °F - 75.2 °F 94% 29.80 in 4.3 mi SSW 3.5 mph - N/A   Mostly Cloudy
4:30 AM 77.0 °F - 73.4 °F 89% 29.80 in 3.7 mi East 8.1 mph - N/A Rain Light Rain
5:00 AM 77.0 °F - 75.2 °F 94% 29.80 in 3.7 mi East 4.6 mph - N/A Rain Light Rain
5:30 AM 77.0 °F - 75.2 °F 94% 29.80 in 4.3 mi SE 3.5 mph - N/A Rain Light Rain
6:00 AM 77.0 °F - 75.2 °F 94% 29.83 in 4.3 mi Calm Calm - N/A Rain Light Rain
6:30 AM 77.0 °F - 75.2 °F 94% 29.83 in 4.3 mi SW 2.3 mph - N/A Rain Light Rain
7:00 AM 77 °F - 75 °F 91% 29.85 in 4 mi Calm Calm - - Rain Light Rain
7:00 AM 77.0 °F - 75.2 °F 94% 29.83 in 4.3 mi Calm Calm - N/A Rain Light Rain
7:30 AM 78.8 °F - 75.2 °F 89% 29.86 in 4.3 mi Calm Calm - N/A   Mostly Cloudy
8:00 AM 80.6 °F 86.2 °F 75.2 °F 84% 29.86 in 5.0 mi East 3.5 mph - N/A   Mostly Cloudy
8:30 AM 80.6 °F 86.2 °F 75.2 °F 84% 29.86 in 5.0 mi East 5.8 mph - N/A Rain Light Rain
9:00 AM 80.6 °F 86.2 °F 75.2 °F 84% 29.89 in 5.0 mi ENE 6.9 mph - N/A Rain Light Rain
9:30 AM 80.6 °F 85.4 °F 73.4 °F 79% 29.89 in 4.3 mi ENE 12.7 mph - N/A Rain Light Rain
10:00 AM 79 °F - 75 °F 85% 29.90 in 5 mi East 8.1 mph - - Rain Light Rain
10:00 AM 78.8 °F - 75.2 °F 89% 29.89 in 5.0 mi East 8.1 mph - N/A Rain Light Rain
10:30 AM 82.4 °F 89.5 °F 75.2 °F 79% 29.89 in 5.0 mi East 6.9 mph - N/A   Mostly Cloudy
11:00 AM 82.4 °F 89.5 °F 75.2 °F 79% 29.86 in 5.0 mi East 11.5 mph - N/A Rain Light Rain
11:30 AM 84.2 °F 92.3 °F 75.2 °F 74% 29.86 in 5.0 mi ENE 12.7 mph - N/A Rain Light Rain
12:00 PM 84.2 °F 92.3 °F 75.2 °F 74% 29.83 in 5.0 mi ENE 10.4 mph - N/A   Mostly Cloudy
12:30 PM 86.0 °F 95.1 °F 75.2 °F 70% 29.80 in 5.0 mi ENE 15.0 mph - N/A   Mostly Cloudy
1:00 PM 83 °F - 73 °F 66% 29.82 in 5 mi ENE 11.5 mph - - Rain Light Rain
1:00 PM 82.4 °F 88.2 °F 73.4 °F 74% 29.80 in 5.0 mi ENE 11.5 mph - N/A Rain Light Rain
1:30 PM 84.2 °F 92.3 °F 75.2 °F 74% 29.80 in 5.0 mi ENE 9.2 mph - N/A   Mostly Cloudy
2:00 PM 84.2 °F 92.3 °F 75.2 °F 74% 29.77 in 5.0 mi ENE 10.4 mph - N/A Rain Light Rain
2:30 PM 80.6 °F 85.4 °F 73.4 °F 79% 29.77 in 5.0 mi East 16.1 mph - N/A Rain Light Rain
3:00 PM 82.4 °F 89.5 °F 75.2 °F 79% 29.77 in 5.0 mi ENE 13.8 mph - N/A Rain Light Rain
3:30 PM 84.2 °F 92.3 °F 75.2 °F 74% 29.77 in 5.0 mi ENE 11.5 mph - N/A Rain Light Rain
4:00 PM 81 °F - 73 °F 70% 29.79 in 5 mi ENE 8.1 mph - - Rain Light Rain
4:00 PM 80.6 °F 85.4 °F 73.4 °F 79% 29.77 in 5.0 mi ENE 8.1 mph - N/A   Mostly Cloudy
4:30 PM 80.6 °F 85.4 °F 73.4 °F 79% 29.77 in 5.0 mi ENE 8.1 mph - N/A   Mostly Cloudy
5:00 PM 82.4 °F 88.2 °F 73.4 °F 74% 29.77 in 5.0 mi ENE 10.4 mph - N/A   Mostly Cloudy
5:30 PM 80.6 °F 85.4 °F 73.4 °F 79% 29.80 in 5.0 mi ENE 8.1 mph - N/A   Mostly Cloudy
6:00 PM 80.6 °F 85.4 °F 73.4 °F 79% 29.80 in 5.0 mi NE 6.9 mph - N/A   Mostly Cloudy
6:30 PM 80.6 °F 85.4 °F 73.4 °F 79% 29.83 in 5.0 mi NE 6.9 mph - N/A   Mostly Cloudy
7:00 PM 79 °F - 73 °F 77% 29.84 in 5 mi Calm Calm - -   Mist
7:00 PM 78.8 °F - 73.4 °F 83% 29.83 in 5.0 mi Calm Calm - N/A   Mostly Cloudy
7:30 PM 78.8 °F - 73.4 °F 83% 29.83 in 5.0 mi NE 2.3 mph - N/A   Mostly Cloudy
8:00 PM 78.8 °F - 73.4 °F 83% 29.86 in 5.0 mi ENE 6.9 mph - N/A   Mostly Cloudy
8:30 PM 77.0 °F - 73.4 °F 89% 29.86 in 5.0 mi West 5.8 mph - N/A   Mostly Cloudy
9:00 PM 77.0 °F - 73.4 °F 89% 29.86 in 5.0 mi WNW 3.5 mph - N/A   Mostly Cloudy
9:30 PM 78.8 °F - 73.4 °F 83% 29.89 in 5.0 mi WNW 3.5 mph - N/A   Mostly Cloudy
10:00 PM 77.0 °F - 73.4 °F 89% 29.89 in 5.0 mi NW 2.3 mph - N/A   Mostly Cloudy
10:30 PM 78.8 °F - 73.4 °F 83% 29.89 in 5.0 mi ESE 6.9 mph - N/A Rain Light Rain
11:00 PM 77.0 °F - 73.4 °F 89% 29.89 in 5.0 mi ENE 5.8 mph - N/A Rain Light Rain
11:30 PM 77.0 °F - 73.4 °F 89% 29.89 in 5.0 mi NE 3.5 mph - N/A   Mostly Cloudy